CW5229 Weather Reports


time (UTC)temp
C
wind
direction
speed
KPH
gust
KPH
rain 1hr
cm
rain 24hr
cm
rain mn
cm
humidity
%
barometer
mb
20260504034553 12 258 0.0 11.3 0.00 0.36 0.23 71 1005.7
20260504033101 12 230 0.0 4.8 0.00 0.36 0.23 71 1005.9
20260504031550 12 264 0.0 3.2 0.00 0.36 0.23 70 1006.0
20260504030100 12 229 0.0 3.2 0.00 0.36 0.23 70 1006.1
20260504024541 12 227 0.0 1.6 0.00 0.36 0.23 70 1006.1
20260504023041 12 242 0.0 3.2 0.00 0.36 0.23 70 1006.1
20260504021545 12 250 0.0 1.6 0.00 0.36 0.23 70 1005.9
20260504020040 12 253 0.0 1.6 0.00 0.36 0.23 69 1005.8
20260504014539 13 252 0.0 1.6 0.00 0.36 0.23 67 1005.5
20260504013041 15 243 0.0 4.8 0.00 0.36 0.23 61 1005.5
20260504011543 15 224 0.0 4.8 0.00 0.36 0.23 61 1005.5
20260504010052 15 238 0.0 4.8 0.00 0.36 0.23 61 1005.6
20260504004545 15 233 0.0 3.2 0.00 0.36 0.23 60 1005.5
20260504003042 16 254 0.0 11.3 0.00 0.36 0.23 57 1005.5
20260504001527 16 217 1.6 8.0 0.00 0.36 0.23 56 1005.5
20260504000012 17 231 1.6 14.5 0.00 0.36 0.23 54 1005.6
20260503234513 17 255 4.8 12.9 0.00 0.36 0.23 54 1005.4
20260503233006 17 175 3.2 12.9 0.00 0.36 0.23 54 1005.6
20260503231505 17 229 4.8 11.3 0.00 0.36 0.23 53 1005.8
20260503230004 18 122 3.2 14.5 0.00 0.36 0.23 52 1006.0
20260503224609 18 203 6.4 19.3 0.00 0.36 0.23 51 1006.1
20260503223112 17 158 3.2 14.5 0.00 0.36 0.23 51 1006.2
20260503221558 17 263 4.8 16.1 0.00 0.36 0.23 51 1006.5
20260503220057 17 176 4.8 24.1 0.00 0.36 0.23 51 1006.4
20260503214557 17 251 11.3 22.5 0.00 0.36 0.23 49 1006.6
20260503213051 17 253 8.0 17.7 0.00 0.36 0.23 50 1007.1
20260503211549 16 111 6.4 22.5 0.00 0.36 0.23 50 1007.4
20260503210047 17 162 6.4 22.5 0.00 0.36 0.23 48 1007.7
20260503204524 17 135 4.8 19.3 0.00 0.36 0.23 50 1007.8
20260503203014 17 203 9.7 24.1 0.00 0.36 0.23 47 1007.8
20260503201510 17 241 9.7 25.7 0.00 0.36 0.23 49 1007.9
20260503200007 17 148 8.0 20.9 0.00 0.36 0.23 51 1008.0
20260503194503 16 241 8.0 20.9 0.00 0.36 0.23 55 1008.5
20260503193108 15 141 3.2 9.7 0.00 0.36 0.23 66 1008.7
20260503191557 14 169 3.2 9.7 0.03 0.36 0.23 70 1009.0
20260503190048 12 152 0.0 8.0 0.08 0.36 0.23 78 1009.4
20260503184544 10 159 0.0 4.8 0.15 0.36 0.23 84 1009.8
20260503183042 9 210 0.0 6.4 0.18 0.36 0.23 84 1010.2
20260503181553 8 155 0.0 4.8 0.18 0.33 0.20 83 1010.8
20260503180041 9 208 0.0 3.2 0.13 0.25 0.13 82 1012.2
20260503174528 10 147 0.0 14.5 0.10 0.20 0.08 80 1012.4
20260503173026 9 113 1.6 4.8 0.13 0.18 0.05 83 1012.6
20260503171524 9 219 1.6 6.4 0.15 0.15 0.03 82 1012.9
20260503150133 12 255 3.2 16.1 0.00 0.00 0.00 59 1013.4
20260503081526 7 238 1.6 9.7 0.00 0.00 0.00 58 1014.6
20260503071550 6 252 0.0 1.6 0.00 0.00 0.00 62 1014.8
20260503054537 6 257 0.0 1.6 0.00 0.00 0.00 66 1015.6
20260503053059 6 207 0.0 3.2 0.00 0.00 0.00 66 1015.7
20260503051557 6 246 0.0 3.2 0.00 0.00 0.00 66 1015.8
20260503050054 6 231 0.0 3.2 0.00 0.00 0.00 67 1015.8
20260503044609 6 247 0.0 1.6 0.00 0.00 0.00 67 1016.0
20260503043056 6 243 0.0 1.6 0.00 0.00 0.00 67 1016.0
20260503041608 6 254 0.0 1.6 0.00 0.00 0.00 67 1016.0
20260503040051 6 238 0.0 1.6 0.00 0.00 0.00 66 1016.1